Weather History for Albert Lea, MN

Change the Weather History Date:

Wednesday, February 13, 2013

  Actual Average Record
Temperature  
Mean Temperature 32 °F -  
Max Temperature 42 °F 27 °F 42 °F (2011)
Min Temperature 21 °F 13 °F -5 °F (1997)
Degree Days  
Heating Degree Days 34    
Moisture  
Dew Point 29 °F    
Average Humidity 88    
Maximum Humidity 100    
Minimum Humidity 70    
Precipitation  
Precipitation 0.00 in - - ()
Sea Level Pressure  
Sea Level Pressure 29.69 in    
Wind  
Wind Speed 3 mph (SW)    
Max Wind Speed 13 mph    
Max Gust Speed 16 mph    
Visibility 10 miles    
Events Rain    
Averages and records for this station are not official NWS values.
T = Trace of Precipitation, MM = Missing Value Source: NWS Daily Summary

Daily Weather History Graph

Daily Weather History Graph

Search for Another Location

Airport:

Trip Planner

Search our weather history database for the weather conditions in past years. The results will help you decide how hot, cold, wet, or windy it might be!

Date:

Astronomy

Feb. 13, 2013 Rise Set
Actual Time 7:14 AM CST 5:41 PM CST
Civil Twilight 6:45 AM CST 6:11 PM CST
Nautical Twilight 6:11 AM CST 6:44 PM CST
Astronomical Twilight 5:38 AM CST 7:18 PM CST
Moon 8:35 AM CST (2/13) 9:54 PM CST (2/13)
Length of Visible Light 11h 26m
Length of Day
10h 26m
Waxing Crescent, 14% of the Moon is Illuminated
Feb 13
Waxing Crescent
Feb 17
First Quarter
Feb 25
Full
Mar 4
Last Quarter
Mar 11
New

Hourly Weather History & Observations

Time (CST) Temp. Windchill Dew Point Humidity Pressure Visibility Wind Dir Wind Speed Gust Speed Precip Events Conditions
12:10 AM 26.6 °F - 24.8 °F 93% 29.81 in 10.0 mi Calm Calm - N/A   Clear
12:29 AM 26.6 °F - 24.8 °F 93% 29.81 in 10.0 mi Calm Calm - N/A   Clear
12:50 AM 26.6 °F - 24.8 °F 93% 29.81 in 10.0 mi Calm Calm - N/A   Clear
1:10 AM 24.8 °F 20.5 °F 24.8 °F 100% 29.80 in 10.0 mi West 3.5 mph - N/A   Clear
1:29 AM 24.8 °F - 23.0 °F 93% 29.79 in 10.0 mi Calm Calm - N/A   Clear
1:50 AM 24.8 °F - 24.8 °F 100% 29.79 in 10.0 mi Calm Calm - N/A   Clear
2:09 AM 23.0 °F 18.4 °F 23.0 °F 100% 29.79 in 10.0 mi WSW 3.5 mph - N/A   Clear
2:29 AM 23.0 °F 18.4 °F 23.0 °F 100% 29.78 in 10.0 mi WSW 3.5 mph - N/A   Clear
2:50 AM 21.2 °F - 21.2 °F 100% 29.78 in 10.0 mi Calm Calm - N/A   Clear
3:09 AM 23.0 °F - 21.2 °F 93% 29.78 in 10.0 mi Calm Calm - N/A   Clear
3:29 AM 21.2 °F - 21.2 °F 100% 29.78 in 10.0 mi Calm Calm - N/A   Clear
3:50 AM 23.0 °F 18.4 °F 21.2 °F 93% 29.78 in 10.0 mi West 3.5 mph - N/A   Clear
4:09 AM 23.0 °F 18.4 °F 21.2 °F 93% 29.78 in 10.0 mi West 3.5 mph - N/A   Clear
4:30 AM 23.0 °F 18.4 °F 21.2 °F 93% 29.77 in 10.0 mi WSW 3.5 mph - N/A   Clear
4:50 AM 23.0 °F - 21.2 °F 93% 29.76 in 10.0 mi Calm Calm - N/A   Scattered Clouds
5:09 AM 23.0 °F - 21.2 °F 93% 29.77 in 10.0 mi Calm Calm - N/A   Mostly Cloudy
5:30 AM 23.0 °F - 21.2 °F 93% 29.76 in 10.0 mi Calm Calm - N/A   Overcast
5:50 AM 24.8 °F 20.5 °F 21.2 °F 86% 29.76 in 10.0 mi WSW 3.5 mph - N/A   Overcast
6:09 AM 24.8 °F - 23.0 °F 93% 29.76 in 10.0 mi Calm Calm - N/A   Overcast
6:30 AM 24.8 °F - 21.2 °F 86% 29.75 in 10.0 mi Calm Calm - N/A   Mostly Cloudy
6:50 AM 23.0 °F 18.4 °F 21.2 °F 93% 29.75 in 10.0 mi SW 3.5 mph - N/A   Clear
7:09 AM 21.2 °F - 21.2 °F 100% 29.75 in 10.0 mi Calm Calm - N/A   Clear
7:30 AM 24.8 °F - 23.0 °F 93% 29.75 in 10.0 mi Calm Calm - N/A   Mostly Cloudy
7:49 AM 24.8 °F - 24.8 °F 100% 29.75 in 10.0 mi Calm Calm - N/A   Overcast
8:09 AM 26.6 °F 22.6 °F 24.8 °F 93% 29.75 in 10.0 mi WSW 3.5 mph - N/A   Overcast
8:29 AM 26.6 °F - 24.8 °F 93% 29.75 in 10.0 mi Calm Calm - N/A   Mostly Cloudy
8:50 AM 28.4 °F 22.2 °F 24.8 °F 86% 29.74 in 10.0 mi WSW 5.8 mph - N/A   Clear
9:10 AM 28.4 °F 23.3 °F 26.6 °F 93% 29.73 in 10.0 mi WSW 4.6 mph - N/A   Clear
9:29 AM 30.2 °F - 26.6 °F 86% 29.73 in 10.0 mi Calm Calm - N/A   Mostly Cloudy
9:50 AM 30.2 °F 26.7 °F 26.6 °F 86% 29.73 in 10.0 mi WSW 3.5 mph - N/A   Overcast
10:09 AM 30.2 °F 24.3 °F 26.6 °F 86% 29.73 in 10.0 mi SW 5.8 mph - N/A   Overcast
10:29 AM 30.2 °F 24.3 °F 26.6 °F 86% 29.73 in 10.0 mi SW 5.8 mph - N/A   Overcast
10:49 AM 32.0 °F 26.4 °F 28.4 °F 87% 29.72 in 10.0 mi SW 5.8 mph - N/A   Mostly Cloudy
11:10 AM 33.8 °F 27.7 °F 28.4 °F 81% 29.72 in 10.0 mi SW 6.9 mph - N/A   Mostly Cloudy
11:29 AM 35.6 °F 29.2 °F 30.2 °F 81% 29.72 in 10.0 mi SW 8.1 mph - N/A   Mostly Cloudy
11:50 AM 35.6 °F 30.7 °F 30.2 °F 81% 29.72 in 10.0 mi SW 5.8 mph - N/A   Overcast
12:09 PM 35.6 °F 29.2 °F 30.2 °F 81% 29.71 in 10.0 mi SW 8.1 mph - N/A   Overcast
12:30 PM 37.4 °F 31.4 °F 30.2 °F 75% 29.70 in 10.0 mi SW 8.1 mph - N/A   Overcast
12:50 PM 37.4 °F 30.8 °F 32.0 °F 81% 29.69 in 10.0 mi SW 9.2 mph - N/A   Scattered Clouds
1:09 PM 37.4 °F 30.8 °F 32.0 °F 81% 29.69 in 10.0 mi SW 9.2 mph - N/A   Clear
1:29 PM 39.2 °F 33.0 °F 33.8 °F 81% 29.68 in 10.0 mi WSW 9.2 mph - N/A   Scattered Clouds
1:50 PM 39.2 °F 32.5 °F 33.8 °F 81% 29.68 in 10.0 mi SW 10.4 mph - N/A   Clear
2:10 PM 39.2 °F 33.0 °F 33.8 °F 81% 29.67 in 10.0 mi SSW 9.2 mph - N/A   Clear
2:29 PM 41.0 °F 35.8 °F 33.8 °F 76% 29.66 in 10.0 mi SSW 8.1 mph - N/A   Clear
2:50 PM 42.8 °F 37.0 °F 33.8 °F 70% 29.65 in 10.0 mi SW 10.4 mph - N/A   Clear
3:10 PM 41.0 °F 35.2 °F 33.8 °F 76% 29.65 in 10.0 mi SW 9.2 mph - N/A   Clear
3:29 PM 42.8 °F 38.0 °F 35.6 °F 76% 29.64 in 10.0 mi SW 8.1 mph - N/A   Clear
3:50 PM 41.0 °F 35.2 °F 35.6 °F 81% 29.64 in 10.0 mi SW 9.2 mph - N/A   Clear
4:09 PM 41.0 °F 36.4 °F 35.6 °F 81% 29.64 in 10.0 mi SSW 6.9 mph - N/A   Scattered Clouds
4:30 PM 42.8 °F 39.3 °F 35.6 °F 76% 29.64 in 10.0 mi SW 5.8 mph - N/A   Scattered Clouds
4:49 PM 41.0 °F 36.4 °F 35.6 °F 81% 29.64 in 10.0 mi SW 6.9 mph - N/A   Clear
5:10 PM 41.0 °F 37.1 °F 35.6 °F 81% 29.63 in 10.0 mi SSW 5.8 mph - N/A   Mostly Cloudy
5:29 PM 41.0 °F 36.4 °F 35.6 °F 81% 29.62 in 10.0 mi SSW 6.9 mph - N/A   Overcast
5:50 PM 41.0 °F 36.4 °F 35.6 °F 81% 29.62 in 10.0 mi South 6.9 mph - N/A   Overcast
6:09 PM 41.0 °F 38.0 °F 35.6 °F 81% 29.61 in 10.0 mi South 4.6 mph - N/A   Overcast
6:30 PM 39.2 °F 37.0 °F 35.6 °F 87% 29.61 in 10.0 mi SSW 3.5 mph - N/A   Drizzle
6:50 PM 39.2 °F 35.0 °F 35.6 °F 87% 29.61 in 10.0 mi SSW 5.8 mph - N/A   Overcast
7:09 PM 41.0 °F 36.4 °F 35.6 °F 81% 29.60 in 10.0 mi SW 6.9 mph - N/A   Overcast
7:30 PM 41.0 °F 33.9 °F 35.6 °F 81% 29.60 in 10.0 mi WSW 12.7 mph 16.1 mph N/A Rain Rain
7:50 PM 39.2 °F 33.6 °F 35.6 °F 87% 29.60 in 10.0 mi WSW 8.1 mph - N/A Rain Rain
8:09 PM 39.2 °F 35.0 °F 37.4 °F 93% 29.59 in 10.0 mi WSW 5.8 mph - N/A Rain Light Rain
8:30 PM 37.4 °F 32.8 °F 37.4 °F 100% 29.59 in 10.0 mi WSW 5.8 mph - N/A Rain Light Rain
8:50 PM 37.4 °F 33.8 °F 35.6 °F 93% 29.57 in 10.0 mi SW 4.6 mph - N/A   Overcast
9:09 PM 37.4 °F 34.9 °F 35.6 °F 93% 29.57 in 10.0 mi SW 3.5 mph - N/A   Overcast
9:30 PM 37.4 °F 32.8 °F 35.6 °F 93% 29.57 in 10.0 mi SW 5.8 mph - N/A   Overcast
9:49 PM 39.2 °F 34.2 °F 35.6 °F 87% 29.57 in 10.0 mi WSW 6.9 mph - N/A   Overcast
10:09 PM 39.2 °F 33.6 °F 35.6 °F 87% 29.57 in 10.0 mi WSW 8.1 mph - N/A   Overcast
10:30 PM 39.2 °F 33.6 °F 35.6 °F 87% 29.57 in 10.0 mi West 8.1 mph - N/A   Overcast
10:49 PM 37.4 °F 29.8 °F 33.8 °F 87% 29.56 in 10.0 mi West 11.5 mph 16.1 mph N/A   Overcast
11:09 PM 37.4 °F 31.4 °F 33.8 °F 87% 29.56 in 10.0 mi West 8.1 mph - N/A   Overcast
11:30 PM 37.4 °F 31.4 °F 35.6 °F 93% 29.57 in 10.0 mi West 8.1 mph - N/A   Overcast
11:49 PM 37.4 °F 32.1 °F 33.8 °F 87% 29.57 in 10.0 mi West 6.9 mph - N/A   Overcast